RH
13 14 15 16 19 20 19 17 16 15 13 13 12 11 9 8 8 8 7 6 5 5 4 4 4 4 4 4 3 3 3 2 2 3 2 2 2 2 2 2 1 2 1 1 2 1 1 2 1 2 2 1 2 2 2 2 2 2 2 2 2 2 3
14 14 15 16 18 20 19 18 17 15 14 13 12 11 9 9 8 8 7 6 6 5 4 4 4 4 4 4 3 3 2 3 3 3 2 2 2 2 2 2 1 1 2 1 2 1 1 2 1 1 2 1 2 2 2 2 2 2 2 2 2 2 3
14 13 14 16 17 19 19 18 16 15 14 13 12 11 10 9 9 8 7 6 6 6 5 4 4 4 5 4 3 3 2 2 3 3 3 2 2 2 1 2 1 1 2 1 1 2 1 1 2 1 2 2 2 2 2 2 2 2 2 2 2 3 2
14 13 14 15 17 18 18 17 16 15 15 14 12 11 10 10 9 8 7 7 6 6 5 5 4 4 5 5 4 3 3 3 3 3 3 2 2 2 1 2 2 1 2 2 1 2 1 1 2 1 2 1 1 2 2 2 2 2 2 2 2 2 2
13 13 14 15 16 17 17 16 16 15 15 14 12 11 10 10 10 8 8 7 6 6 5 5 5 5 5 5 4 3 3 3 3 3 3 2 2 2 2 2 2 1 2 2 1 2 1 1 1 1 1 1 1 2 2 2 2 2 2 2 2 2 2
12 13 14 15 15 15 15 15 14 14 14 13 12 11 10 10 10 8 8 7 6 5 5 5 5 5 5 5 4 4 3 3 3 3 3 2 2 2 2 2 1 1 2 1 1 2 1 1 1 1 1 1 1 2 1 2 2 2 2 2 2 2 2
12 13 14 14 14 14 14 14 13 13 13 13 12 11 10 10 10 9 8 7 6 5 5 5 5 5 6 5 4 4 3 3 3 3 2 2 2 2 2 2 1 1 2 1 2 2 1 1 1 1 2 1 1 1 1 2 2 2 2 2 2 2 2
12 13 14 14 14 14 13 13 13 12 12 12 11 11 10 10 10 9 9 7 5 5 5 4 5 5 6 5 4 4 3 3 3 3 3 2 2 2 2 2 1 1 2 1 1 2 1 2 1 1 1 1 2 1 1 2 2 2 2 2 2 2 2
13 13 14 14 14 13 13 13 12 12 11 11 11 10 10 10 10 9 9 7 5 5 5 5 5 6 7 5 4 4 3 4 4 3 3 2 2 2 2 2 1 1 2 1 1 2 1 2 1 1 1 1 1 2 1 1 2 1 2 2 2 3 2
13 13 13 14 14 13 13 12 11 11 10 10 10 10 10 10 10 10 9 7 6 5 5 5 5 7 7 5 4 4 4 4 4 3 3 2 2 2 2 2 2 1 2 1 1 2 1 2 2 1 1 1 1 2 1 1 2 1 1 2 2 2 3
12 13 13 14 14 13 13 12 11 10 9 9 9 9 10 10 9 9 9 7 5 5 5 5 6 8 8 6 4 4 3 4 4 4 3 2 2 3 2 2 2 1 2 1 1 2 1 1 2 1 1 2 1 2 2 1 2 2 1 2 2 2 2
12 12 12 13 13 13 12 11 10 9 9 8 9 9 9 9 9 9 9 7 5 5 5 5 6 9 9 7 5 4 3 4 4 4 3 2 2 2 2 2 2 1 2 2 1 2 2 1 2 1 1 1 1 1 2 1 1 2 1 1 2 2 2
13 12 13 13 13 12 11 11 10 9 8 8 8 9 9 9 9 9 8 7 5 5 5 5 8 10 9 7 5 4 4 4 4 4 3 2 2 2 2 2 2 2 1 2 1 1 2 1 1 2 1 1 1 1 1 2 1 1 2 1 1 2 2
14 13 13 13 12 12 11 10 9 8 8 8 8 9 8 9 9 9 8 7 6 6 6 6 9 11 10 8 6 5 4 4 4 4 3 2 2 2 2 2 2 2 2 2 2 1 2 2 1 2 1 1 1 1 1 2 1 1 1 1 2 2 2
14 14 14 12 11 11 10 10 9 8 7 7 8 8 8 9 9 9 8 6 6 6 6 7 11 12 10 8 6 5 4 4 4 4 3 3 2 2 2 2 2 2 2 2 2 1 1 2 1 1 1 1 1 1 1 1 1 1 1 1 2 1 2
15 15 14 12 10 10 10 9 9 8 7 7 7 8 8 9 9 8 7 6 6 6 6 8 12 13 10 9 7 5 5 4 4 5 4 3 2 2 2 3 2 2 2 2 2 2 1 2 1 1 1 1 1 1 1 1 1 1 2 1 1 2 1
15 15 14 12 9 9 9 9 8 7 7 7 7 8 8 9 9 8 7 6 6 6 6 9 13 13 11 10 8 6 5 4 5 6 5 3 3 3 2 3 2 2 2 2 2 2 1 1 1 1 1 1 1 1 1 1 1 1 2 1 1 2 1
15 14 13 11 9 8 9 8 7 7 7 7 7 7 8 9 9 8 7 7 6 6 7 10 14 14 12 11 10 7 5 5 5 6 6 4 3 3 3 3 2 2 2 2 2 1 2 2 1 1 1 1 1 1 1 1 1 1 1 2 1 1 2
16 14 13 11 9 8 8 8 7 7 7 7 7 7 8 9 9 8 7 7 7 6 7 10 14 14 13 12 10 7 6 6 6 7 6 4 3 3 3 3 2 2 2 2 2 2 1 2 1 1 2 1 1 1 1 1 1 1 1 1 2 1 1
15 13 12 10 8 7 8 7 7 7 7 8 7 7 8 9 9 8 7 7 7 6 7 11 14 14 13 13 11 8 6 6 7 8 7 5 4 3 3 3 2 2 2 2 2 2 1 2 2 1 1 2 1 1 1 1 1 1 2 1 1 2 2
14 12 11 9 8 7 7 7 7 7 8 8 8 7 9 9 9 8 7 7 7 7 8 12 15 14 13 13 11 7 6 7 7 8 7 6 4 3 3 3 2 2 2 2 2 2 2 1 2 2 1 1 1 1 1 1 1 1 2 2 1 2 2
13 11 10 9 7 7 7 6 6 7 8 8 8 8 9 10 9 8 7 7 7 7 9 13 15 14 14 14 11 7 6 7 7 7 8 7 4 3 3 3 3 2 2 2 2 2 2 2 2 2 2 2 1 1 1 1 1 1 1 2 2 2 2
11 10 9 8 7 7 7 6 6 7 9 9 8 8 10 10 9 8 7 8 7 7 11 15 17 15 15 14 11 7 6 6 6 7 8 7 4 3 3 3 3 3 2 2 2 2 2 2 2 2 2 2 2 2 1 1 1 2 2 2 2 2 2
10 9 8 7 7 7 7 6 6 7 9 9 8 9 10 10 9 8 8 8 7 8 13 18 18 17 17 16 12 8 6 6 6 7 8 7 4 3 3 3 3 3 3 2 2 2 2 2 2 2 2 2 2 2 1 1 1 2 2 2 2 2 3
9 8 7 7 7 7 7 6 6 8 9 9 8 10 10 9 9 8 8 8 8 10 16 20 19 19 20 18 13 8 6 6 6 6 7 6 5 3 3 3 3 3 3 3 2 2 2 2 2 2 2 2 2 2 2 1 2 2 2 2 3 2 2
8 8 7 7 6 6 7 7 7 8 9 9 9 10 10 9 9 8 8 8 8 12 19 23 22 22 23 20 14 9 6 6 6 6 6 6 6 4 3 3 3 3 3 3 2 2 2 2 2 2 2 2 2 2 2 2 1 2 2 2 3 3 3
8 7 7 6 6 6 7 7 7 8 9 9 9 10 10 9 9 8 9 8 9 15 23 25 25 26 26 21 15 8 6 7 7 6 6 6 6 5 3 3 3 3 3 3 3 2 2 2 2 2 2 2 2 2 2 2 2 2 2 3 3 3 3
7 6 6 6 6 6 7 7 7 8 8 9 9 9 9 9 9 9 9 8 10 18 25 27 28 30 29 23 15 9 7 8 8 7 7 7 7 6 4 3 3 3 3 3 3 3 2 2 2 2 2 2 3 3 2 2 2 2 2 3 3 3 3
7 6 6 6 6 7 7 8 7 7 8 9 9 9 9 9 9 9 9 9 13 21 28 30 32 34 32 24 16 10 8 9 9 8 8 7 7 7 5 4 3 3 3 3 3 3 3 2 2 2 2 2 3 3 3 3 2 2 2 3 3 3 3
6 6 6 6 6 7 7 7 7 7 8 9 9 9 9 9 9 10 9 10 16 24 30 32 35 37 34 25 16 10 9 9 9 9 9 8 8 7 6 4 3 3 3 3 3 3 3 3 2 2 2 2 3 3 3 3 3 2 3 3 3 3 3
6 6 6 6 7 7 7 7 7 7 8 9 8 8 9 9 9 10 10 12 19 27 31 33 37 38 34 25 15 10 10 9 8 8 8 9 9 8 7 5 4 3 3 3 3 3 3 3 3 2 2 2 3 3 3 3 3 3 3 3 3 3 3
6 6 6 6 7 7 7 7 6 7 8 9 8 8 9 9 9 10 10 14 22 29 31 33 37 38 34 24 14 10 10 9 9 9 8 9 9 8 7 6 4 3 3 3 3 3 3 3 3 3 3 2 2 3 3 3 3 4 3 3 3 3 4
6 6 6 6 7 7 7 6 7 7 8 8 8 8 9 9 10 10 11 16 25 31 31 34 38 38 33 23 14 10 10 10 9 9 9 9 10 9 8 6 5 3 3 3 3 3 3 3 3 3 3 3 2 3 3 3 3 4 4 3 3 4 4
5 6 6 7 7 6 6 6 7 8 8 7 8 9 9 9 10 11 13 21 29 32 33 37 40 39 32 22 13 11 11 10 10 10 9 9 10 10 9 8 6 4 4 3 3 3 3 3 3 3 3 3 3 3 3 3 4 4 4 4 4 4 4
5 6 6 6 6 6 6 7 7 8 8 7 8 9 9 10 11 12 16 25 32 34 35 39 42 39 31 21 13 11 11 10 10 10 10 10 11 11 11 9 7 6 4 3 3 4 3 3 3 3 3 3 3 3 3 3 3 4 4 4 4 4 4
5 5 6 6 6 6 6 7 7 7 7 8 9 9 9 10 11 13 21 30 34 35 36 40 43 39 29 20 14 13 12 11 11 11 10 11 11 12 11 10 8 6 5 4 3 3 4 4 3 3 3 3 3 3 3 3 3 3 4 4 4 4 4
Wind_Speed
69 68 67 67 67 68 68 68 68 69 68 68 67 66 65 64 64 63 63 63 62 61 59 58 57 56 55 54 53 52 49 46 43 41 41 38 34 32 29 26 25 27 31 37 39 37 42 48 52 56 62 67 72 77 81 86 92 97 102 107 114 122 129
67 66 66 66 66 67 68 68 68 68 68 67 66 66 65 65 64 63 62 62 62 61 59 58 56 55 55 54 53 51 49 45 42 41 41 38 34 30 28 25 23 25 28 34 38 38 40 46 51 55 60 65 71 76 80 85 90 95 100 106 111 119 126
65 65 65 65 65 67 67 67 68 68 68 67 66 65 64 64 64 64 62 62 62 60 59 57 56 55 54 54 53 49 48 45 41 40 41 38 33 29 27 25 22 23 26 31 36 38 39 43 49 54 58 64 69 74 79 84 88 93 99 104 109 115 123
64 64 64 64 65 66 67 67 68 68 68 67 66 64 64 64 64 63 62 61 60 59 58 57 56 55 54 53 52 48 47 44 41 40 40 38 33 29 26 24 22 21 24 27 33 37 38 41 46 52 57 62 67 72 77 83 87 91 97 102 107 113 119
63 63 63 63 64 65 66 67 67 68 67 66 65 63 63 63 63 63 62 61 59 58 57 56 55 54 53 52 50 48 46 44 41 39 39 37 33 29 25 24 22 21 22 25 29 35 39 40 44 50 55 60 65 70 75 81 86 89 94 100 105 111 117
61 61 61 63 64 64 65 66 66 67 67 66 65 63 62 62 63 63 62 60 58 56 55 55 54 53 53 51 49 47 45 43 41 39 38 36 33 29 25 23 22 21 22 24 27 33 38 40 43 47 54 59 64 69 74 79 84 88 92 97 103 109 115
61 60 61 62 63 64 64 65 66 66 65 65 64 62 61 61 62 62 61 60 57 55 53 53 53 52 52 51 48 46 44 42 40 39 37 35 33 30 26 23 21 20 21 24 26 30 36 40 42 45 51 57 62 67 72 77 82 86 90 96 100 106 112
61 60 61 61 63 64 64 64 65 64 64 64 63 61 60 60 61 61 61 60 57 54 53 51 52 52 52 51 48 45 44 42 40 39 37 35 34 31 27 24 22 20 20 22 25 29 33 38 42 44 48 55 61 65 70 75 80 84 88 93 98 103 109
61 60 61 61 62 63 64 64 64 64 63 62 61 60 58 58 59 60 60 59 57 54 52 51 51 52 51 50 47 44 43 42 40 39 37 34 33 32 29 24 22 21 20 21 23 27 31 36 41 43 46 52 59 64 68 73 77 82 86 91 96 101 106
60 60 60 61 61 63 63 63 63 63 62 61 59 58 57 57 57 58 58 58 56 54 52 51 51 51 51 50 47 43 42 41 39 37 35 32 31 31 30 26 22 20 21 21 22 24 28 33 39 42 43 48 56 61 66 71 75 80 84 88 93 98 103
58 59 59 60 61 62 63 63 63 63 61 59 58 56 56 55 55 55 56 56 54 53 52 51 50 50 51 51 47 43 41 39 38 36 35 32 29 28 28 26 23 21 20 22 22 23 25 29 36 40 42 45 51 58 63 68 73 78 82 86 91 96 101
58 58 58 59 60 61 62 62 63 62 60 58 56 54 54 53 53 53 54 53 52 52 51 50 50 50 50 50 47 44 41 39 37 36 34 31 28 25 25 25 24 22 21 22 23 23 24 27 32 38 41 42 47 54 60 65 71 76 80 84 89 93 98
60 59 58 58 59 60 61 62 62 62 60 57 55 53 52 52 51 51 52 51 50 50 49 49 49 49 50 50 47 44 43 40 38 36 34 31 27 24 23 24 23 23 23 22 23 24 24 25 29 35 39 41 43 49 56 62 67 73 77 81 86 91 95
60 60 59 58 57 59 60 61 61 61 59 56 54 51 50 50 49 49 50 49 49 48 48 48 48 49 50 49 47 45 43 41 38 37 35 32 27 24 23 24 23 23 23 23 24 25 24 25 27 32 37 39 41 45 51 58 63 69 73 78 83 88 91
59 60 61 59 57 58 59 60 60 60 57 54 52 50 49 48 47 48 48 48 47 47 47 47 47 48 49 48 46 45 43 41 38 38 37 34 29 26 24 24 24 23 22 22 24 25 24 24 26 30 34 37 39 41 46 53 59 64 69 74 79 84 88
59 60 61 60 58 57 58 59 59 58 55 52 50 48 47 46 45 46 46 46 46 45 45 45 46 47 47 47 46 45 43 40 39 39 38 35 31 29 27 25 24 23 22 22 22 24 24 24 24 27 32 35 37 39 42 47 54 60 64 70 75 80 85
59 59 60 60 58 56 56 57 57 55 53 50 49 47 46 44 44 45 45 45 45 44 43 43 44 45 46 45 45 45 43 40 39 39 38 35 33 31 29 26 23 22 22 22 22 22 23 23 23 25 29 32 35 37 39 43 49 55 61 66 71 76 81
59 59 60 61 59 56 56 56 55 53 51 49 48 47 44 43 44 44 44 44 43 43 42 42 42 43 44 44 44 44 42 39 39 40 38 36 34 32 30 27 23 20 20 21 21 21 21 21 22 23 25 29 32 34 37 40 44 50 57 61 66 71 75
59 60 60 60 59 57 55 55 53 51 50 48 47 45 43 42 43 43 44 44 43 42 41 41 41 42 42 42 43 43 41 38 38 39 38 36 34 32 30 27 23 20 18 19 20 20 20 19 20 21 22 25 29 32 35 38 40 45 52 57 61 66 70
58 60 59 59 59 56 54 53 52 49 48 47 47 44 42 42 42 43 43 43 42 41 41 40 40 41 40 40 42 42 39 37 37 37 36 35 33 30 28 26 23 20 17 17 18 18 18 18 18 19 20 22 26 30 33 35 38 41 47 52 57 62 66
58 59 59 58 58 56 53 51 49 47 46 47 46 43 41 41 42 42 42 42 41 41 41 40 40 40 39 39 41 41 38 35 35 35 34 33 31 29 26 24 22 20 18 16 16 16 16 16 16 17 18 20 24 28 31 34 36 39 43 48 54 59 64
58 58 58 57 57 56 53 49 47 45 45 46 45 43 41 41 41 41 41 41 41 41 40 40 39 39 38 39 41 40 37 34 33 33 33 33 30 27 24 23 20 19 18 16 15 15 15 14 14 15 16 18 21 26 30 33 35 38 41 46 51 57 62
57 57 56 55 54 54 52 48 46 44 45 46 45 42 41 41 41 41 41 40 40 40 40 40 39 39 38 39 41 41 38 34 33 33 33 32 30 26 23 22 20 19 18 16 15 15 14 13 13 13 14 16 19 24 29 32 33 36 39 43 49 55 60
56 55 54 53 52 51 49 47 44 43 44 45 44 41 40 40 40 40 40 39 40 39 39 39 39 39 38 39 41 41 38 34 33 33 33 32 29 25 22 21 21 19 18 16 15 14 14 13 12 12 13 15 17 22 27 31 32 34 37 41 47 53 58
55 54 53 51 50 48 47 46 43 41 43 44 42 40 40 39 39 39 39 38 39 38 38 38 39 38 39 40 41 41 38 35 33 33 32 31 30 27 24 22 21 20 18 16 15 14 14 13 12 11 12 14 16 20 25 29 31 32 35 39 44 50 56
53 52 51 49 48 45 45 44 43 41 42 42 40 39 38 38 37 37 37 37 37 37 37 37 37 37 38 40 41 40 38 35 34 33 32 32 31 29 26 23 22 21 19 17 15 14 13 13 12 11 11 13 15 18 22 27 30 31 33 36 41 47 53
52 50 48 47 45 43 42 43 42 41 41 41 39 38 37 37 36 36 36 36 36 35 35 36 36 37 38 40 42 40 37 35 35 35 34 33 32 30 27 24 22 21 19 17 15 13 12 12 12 11 11 12 14 16 20 25 29 30 31 34 38 44 49
49 47 46 44 42 40 40 41 41 40 39 39 38 37 36 36 35 34 34 35 34 34 34 35 35 36 38 40 41 40 37 35 35 36 35 33 32 31 29 25 22 20 19 17 15 13 12 12 12 11 10 11 13 15 17 22 27 29 30 31 35 40 46
47 45 43 41 39 38 38 39 40 38 37 37 36 35 35 34 34 33 33 33 33 33 33 33 34 35 37 40 41 39 36 34 34 35 35 34 33 31 29 26 23 20 19 18 16 14 12 11 11 11 11 11 12 14 16 19 24 28 29 30 33 38 43
44 42 40 38 36 36 37 38 38 36 35 36 35 34 34 33 32 32 32 32 31 31 32 32 33 34 37 39 40 38 36 34 33 33 33 34 34 32 30 27 24 20 19 18 16 14 12 11 11 11 11 11 11 13 15 18 21 25 28 29 31 35 40
41 39 36 35 34 35 36 37 36 33 33 34 34 32 32 32 31 31 31 30 30 30 30 31 31 33 36 38 39 38 36 34 33 32 32 33 33 32 30 28 25 22 19 18 17 15 13 11 10 10 11 11 11 12 14 17 19 23 27 29 30 32 37
38 36 34 33 33 34 36 36 33 31 31 32 32 31 30 30 30 30 29 29 29 29 29 30 30 32 35 38 38 37 36 35 34 34 33 33 33 32 30 28 26 23 20 18 17 16 14 12 10 10 11 12 12 12 14 16 18 21 24 28 30 31 34
34 33 32 31 32 34 35 34 31 30 30 31 30 29 29 28 28 28 28 27 27 28 28 29 29 31 34 36 36 35 35 35 34 35 34 34 34 34 33 30 27 25 22 19 17 16 14 13 11 10 10 11 12 13 14 15 17 20 23 26 30 31 33
32 31 30 31 32 33 33 31 30 29 29 29 28 28 28 27 27 27 26 26 26 27 28 28 28 31 33 35 35 34 34 34 34 35 35 35 35 35 35 33 31 28 24 21 18 16 15 14 12 10 10 11 12 13 14 15 17 19 21 24 28 31 33
30 29 29 30 32 32 30 30 29 28 28 28 27 27 27 26 26 25 25 25 26 27 27 28 29 31 33 34 33 32 33 33 34 34 35 35 35 35 34 33 31 29 26 23 20 17 16 15 13 11 10 10 12 13 15 15 17 18 20 23 26 30 33
28 28 29 30 30 29 29 28 28 27 27 27 26 26 26 25 25 24 25 25 26 27 27 27 28 31 33 33 32 31 31 32 33 34 34 35 35 34 34 33 32 29 26 24 21 18 16 15 14 12 11 10 11 13 14 16 17 18 19 21 24 28 32
Wind_Direction
305 307 309 310 312 312 312 313 313 314 315 316 317 318 319 319 320 321 321 320 319 320 322 322 321 320 319 318 318 318 316 316 317 317 315 311 304 295 287 276 263 253 249 251 247 234 227 226 222 219 219 217 216 215 213 211 211 211 210 209 209 209 209
306 307 309 311 311 311 312 312 313 313 314 315 317 318 319 320 321 321 321 320 320 321 322 323 322 321 320 320 320 319 317 317 318 318 316 311 305 296 289 279 263 251 246 247 248 239 227 226 224 219 218 217 216 215 214 212 211 210 210 209 209 209 208
307 308 309 310 310 310 311 312 312 313 314 315 316 318 319 320 321 321 321 320 320 321 323 323 322 322 322 321 320 320 318 318 319 320 317 311 305 298 290 282 265 250 244 244 246 242 230 225 225 221 218 217 216 215 214 213 211 210 210 209 209 209 209
307 308 310 310 309 309 310 311 312 312 313 314 316 318 319 320 320 320 320 320 320 322 323 323 323 323 322 321 321 320 319 319 320 321 317 311 306 300 292 284 270 251 244 242 244 243 235 226 224 223 220 217 216 215 214 214 213 211 210 209 209 210 209
308 309 309 309 308 309 310 310 311 312 312 314 316 318 320 320 320 319 319 319 320 322 323 324 324 323 322 321 322 321 321 320 321 321 318 312 307 303 296 288 275 260 250 245 242 243 239 229 224 223 222 218 216 215 214 214 214 212 211 210 209 209 210
308 309 308 308 308 308 309 310 310 311 312 314 316 318 319 320 319 319 319 319 320 322 324 324 323 323 322 322 323 322 322 322 322 322 319 313 308 304 298 289 277 265 257 251 244 241 240 234 226 222 222 220 217 215 214 214 214 213 212 211 209 209 210
309 308 308 308 308 308 309 309 310 311 312 314 316 318 319 319 318 318 318 318 320 322 324 324 323 323 323 323 324 323 323 323 323 322 320 315 310 306 300 292 280 267 258 253 247 241 239 237 230 223 221 222 219 216 214 214 214 214 213 212 211 209 209
309 309 308 308 308 308 309 309 310 311 313 314 316 317 318 318 318 318 318 318 320 323 324 325 324 324 323 324 324 324 325 325 324 323 322 318 313 309 304 297 286 274 263 255 248 242 238 237 234 226 221 221 221 218 215 214 214 214 213 212 212 211 210
309 309 309 309 308 308 309 309 311 312 313 315 316 316 318 318 318 318 318 318 320 323 325 326 326 325 324 324 324 325 326 326 325 325 324 320 316 311 305 299 290 281 272 261 250 243 238 237 236 231 222 220 221 220 217 215 214 214 214 213 212 212 211
309 309 309 309 309 308 309 310 311 312 314 315 316 316 318 318 318 318 317 318 321 323 325 326 326 325 324 324 325 325 327 326 325 325 324 321 318 312 308 303 295 286 279 270 256 244 239 237 236 234 226 220 220 221 218 216 214 214 214 213 213 212 212
308 308 309 309 309 309 309 310 311 312 314 315 316 317 318 318 318 317 316 318 321 324 325 326 327 326 325 325 324 325 326 326 325 326 325 322 317 312 310 307 301 292 284 277 267 252 242 237 236 236 230 222 219 221 220 217 216 215 214 213 213 213 212
307 308 309 309 309 309 309 310 311 312 313 315 317 318 318 318 318 317 316 318 322 324 325 326 326 326 326 325 324 326 327 327 326 327 327 323 318 313 312 311 307 299 290 281 273 262 249 241 237 236 233 226 219 219 221 219 217 216 214 213 213 213 213
307 308 309 309 309 309 309 309 310 311 313 316 318 318 318 317 317 316 316 319 322 324 325 326 327 327 326 325 325 327 328 328 328 329 328 324 320 318 318 316 312 305 296 286 277 267 256 246 239 236 234 230 222 218 219 220 219 217 216 214 214 214 214
307 308 308 308 309 309 308 309 309 311 314 317 318 318 317 317 317 316 317 320 323 325 326 327 328 327 326 325 326 327 328 328 329 331 330 326 323 324 324 321 315 307 298 290 281 271 260 250 242 237 235 232 226 219 217 219 219 219 217 215 215 215 215
306 306 307 307 308 308 308 308 309 311 314 317 317 317 317 316 316 316 317 320 323 325 326 327 328 327 325 325 326 327 328 328 331 333 332 329 327 329 329 324 317 308 298 289 282 274 265 254 245 238 235 233 229 222 218 217 219 219 218 217 216 215 215
304 305 305 306 307 307 307 307 309 311 314 317 317 316 316 316 316 316 318 321 323 325 327 327 327 326 325 326 327 328 328 329 333 335 334 331 331 331 331 326 319 310 301 292 282 274 267 258 248 240 235 233 231 226 221 217 217 218 218 217 217 216 216
302 303 303 304 306 307 307 307 309 312 314 316 316 315 316 316 316 316 318 321 323 325 326 328 327 326 326 327 327 327 328 330 334 335 334 333 333 332 330 325 319 311 302 294 286 276 268 260 252 243 236 233 231 228 224 219 217 217 217 217 217 217 217
300 302 303 304 306 307 307 308 310 313 315 316 315 315 316 317 316 316 319 321 323 324 326 327 327 325 326 327 327 327 328 331 335 335 334 335 335 332 328 324 319 312 303 295 288 280 271 263 255 246 237 233 230 228 224 221 217 216 216 217 216 217 218
299 301 302 303 306 307 307 308 310 313 314 315 314 315 316 316 315 317 318 320 322 324 326 327 326 325 326 327 327 326 328 332 335 335 334 335 335 331 326 322 319 314 305 296 289 282 273 265 258 248 239 233 230 227 223 220 216 214 214 215 216 216 217
297 299 300 303 305 306 307 309 310 313 314 313 312 314 316 315 315 317 318 320 322 324 325 326 325 325 326 327 327 326 328 333 335 334 334 335 334 328 323 321 320 317 310 299 291 283 274 266 259 250 240 233 229 225 221 217 214 212 211 212 213 214 215
295 297 300 302 304 306 307 309 310 312 313 311 311 314 316 315 315 317 318 320 322 324 325 325 325 324 326 328 327 325 328 333 334 333 334 335 332 327 323 322 323 322 317 307 295 286 277 267 260 251 241 234 229 224 218 213 209 208 208 209 210 211 212
293 296 299 301 303 305 307 309 310 312 312 310 310 314 315 315 315 317 318 320 322 323 324 325 324 325 327 329 327 326 328 332 333 334 336 335 331 328 325 324 326 326 322 314 301 291 281 269 260 251 242 235 229 223 215 209 206 205 206 206 207 209 210
293 295 298 300 302 304 306 309 311 312 311 309 310 313 314 314 315 316 318 320 322 323 324 324 324 326 329 330 328 326 327 331 334 336 337 335 331 331 330 329 330 331 327 320 309 297 286 273 261 251 242 234 229 222 214 206 203 203 205 205 206 207 208
293 295 297 299 301 303 306 308 310 311 309 307 310 313 313 313 315 316 318 320 322 323 324 324 325 327 330 331 328 326 327 332 336 336 336 335 333 334 335 334 334 334 331 325 314 302 291 279 265 252 242 233 228 223 214 206 201 202 204 205 205 206 207
293 295 297 299 301 304 306 307 308 309 306 306 309 311 311 312 314 315 318 320 321 323 324 325 326 328 331 330 327 325 327 331 335 336 336 337 337 338 340 340 337 336 334 329 319 306 295 283 269 255 243 233 227 223 216 206 200 200 203 205 205 206 207
293 295 298 300 302 305 306 305 306 306 305 305 308 309 310 311 313 315 318 319 321 323 324 325 327 329 330 329 326 325 327 331 334 336 338 340 341 341 342 342 340 337 335 331 322 310 297 286 274 259 247 235 227 223 217 209 200 198 202 204 205 206 207
293 296 298 300 303 304 305 304 304 304 304 305 307 308 309 310 312 315 317 318 320 322 323 325 328 329 330 328 324 324 327 332 335 336 338 341 343 342 342 343 341 338 335 332 326 314 300 288 277 264 251 239 229 223 219 212 203 198 200 203 205 205 207
294 296 298 300 302 303 303 302 301 302 303 303 305 306 308 309 312 314 316 318 319 321 323 326 328 330 329 326 323 324 328 333 335 335 336 339 342 343 342 342 342 339 335 333 329 319 305 291 279 268 256 244 233 225 221 216 207 200 199 202 204 205 206
293 295 297 299 301 302 301 299 299 300 302 302 303 305 307 308 311 313 315 317 319 321 323 326 329 330 328 324 322 323 327 332 334 335 335 337 340 342 342 341 341 340 336 333 331 324 312 296 282 271 260 250 238 229 223 220 213 205 200 200 203 204 205
293 295 296 298 299 299 298 296 297 300 301 301 302 305 306 307 310 312 314 317 319 320 323 326 328 329 327 322 320 322 325 329 333 335 335 336 338 340 342 341 340 340 338 334 331 327 317 303 287 274 263 253 244 234 227 222 218 211 204 200 202 204 204
292 294 295 296 297 297 294 293 296 299 299 298 301 303 305 307 309 311 313 316 317 318 322 326 328 328 325 320 319 320 323 327 331 334 336 336 337 338 341 341 340 340 339 336 332 328 322 310 293 278 266 256 247 239 232 226 222 217 210 204 202 203 204
291 292 293 295 295 294 292 292 296 298 297 296 299 302 303 306 308 310 312 315 315 317 322 326 327 326 323 318 317 319 322 327 331 333 335 336 336 337 339 341 341 339 339 337 333 328 324 316 300 282 269 259 250 243 236 230 226 222 216 209 204 203 205
289 290 291 293 293 291 291 293 296 296 295 296 299 301 302 304 306 308 311 313 313 317 322 325 326 325 321 316 316 319 322 326 330 333 334 336 337 337 339 341 341 341 339 338 334 329 325 318 307 290 272 260 252 245 240 233 229 226 222 215 208 204 204
287 288 290 291 290 289 291 294 295 294 294 296 299 300 301 303 305 307 310 311 313 318 323 325 326 324 319 315 316 319 323 326 330 332 333 335 337 338 338 339 340 340 339 337 335 330 325 319 311 297 279 263 253 247 241 237 232 228 225 221 215 208 205
286 287 288 289 289 290 292 293 294 294 295 298 300 301 301 302 305 307 310 311 314 319 323 326 326 323 318 315 317 321 324 327 329 331 332 334 336 337 337 337 337 338 336 334 333 330 324 319 312 302 286 268 255 248 243 239 235 230 228 225 221 214 209
285 286 287 289 290 292 293 294 294 296 297 299 300 300 301 303 306 309 311 313 316 321 324 326 326 322 317 316 319 322 325 327 328 329 330 332 333 335 335 335 335 335 334 332 330 327 323 318 312 304 293 276 260 249 244 240 237 233 229 227 224 220 214